Home > Weather > Germering > Past weeks

Flag for Germany Weather for the Past 2 Weeks in Germering, Bavaria, Germany

Now
45 °F

Passing clouds.


Feels Like: 43 °F
Forecast: 34 / 62 °F
Wind: 3 mph from East

Location: Landsberg

Current Time: Apr 30, 2016 at 12:15:16 AM

Latest Report: Apr 29, 2016 at 11:20 PM


Visibility: N/A

Pressure: 30.01 "Hg (28.10 "Hg at 538m altitude)

Humidity: 57%

Dew Point: 30 °F

Location of GermeringLocation

Historic Weather in Germering — Graph

°F

Germering Temperature Yesterday

Maximum temperature yesterday: 57 °F (at 3:20 PM)
Minimum temperature yesterday: 30 °F (at 5:20 AM)
Average temperature yesterday: 45 °F

High & Low Weather Summary for the Past Weeks

 TemperatureHumidityPressure
High64 °F (Apr 22, 3:20 PM)100% (Apr 17, 1:20 PM)30.36 "Hg (Apr 17, 1:20 PM)
Low28 °F (Apr 28, 1:20 AM)31% (Apr 29, 5:20 PM)29.59 "Hg (Apr 26, 9:20 AM)
Average44 °F75%29.93 "Hg
* Reported Apr 14 10:20 PM — Apr 29 10:20 PM, Germering, Weather by CustomWeather, © 2016

Note: Actual official high and low records may vary slightly from our data, if they occured in-between our weather recording intervals... More about our weather records

Advertising

Germering Weather History for the Previous 24 Hours

Scroll right to see more
 ConditionsComfort  
Time TempWeatherWind HumidityBarometerVisibility
10:20 PM
Fri, Apr 29
48 °FPassing clouds.5 mph50%30.04 "HgN/A
9:20 PM50 °FPassing clouds.5 mph47%30.04 "HgN/A
8:20 PM52 °FScattered clouds.5 mph47%30.01 "HgN/A
7:20 PM55 °FPassing clouds.7 mph38%30.01 "HgN/A
6:20 PM57 °FPassing clouds.5 mph33%30.01 "HgN/A
5:20 PM57 °FPassing clouds.3 mph31%30.01 "HgN/A
4:20 PM57 °FPassing clouds.3 mph33%30.01 "HgN/A
3:20 PM57 °FPassing clouds.2 mph33%30.04 "HgN/A
2:20 PM55 °FPassing clouds.5 mph36%30.04 "HgN/A
1:20 PM54 °FPassing clouds.3 mph35%30.04 "HgN/A
12:20 PM52 °FPassing clouds.5 mph35%30.04 "HgN/A
11:20 AM50 °FPassing clouds.5 mph43%30.07 "HgN/A
10:20 AM46 °FPassing clouds.3 mph62%30.07 "HgN/A
9:20 AM43 °FPassing clouds.3 mph66%30.07 "HgN/A
8:20 AM37 °FPassing clouds.2 mph81%30.07 "HgN/A
7:20 AM32 °FPassing clouds.5 mph87%30.04 "HgN/A
6:20 AM30 °FPassing clouds.3 mph93%30.04 "HgN/A
5:20 AM30 °FPassing clouds.3 mph93%30.04 "HgN/A
4:20 AM32 °FPassing clouds.2 mph87%30.04 "HgN/A
3:20 AM32 °FPassing clouds.5 mph87%30.04 "HgN/A
2:20 AM32 °FPassing clouds.7 mph87%30.04 "HgN/A
1:20 AM34 °FPassing clouds.3 mph87%30.04 "HgN/A
12:20 AM34 °FPassing clouds.3 mph87%30.04 "HgN/A
Weather by CustomWeather, © 2016

See weather overviewHow to use our weather pages